Wind_Speed
6 4 9 15 14 3 5 4 5 3 5 3 8 7 11 20 13 16 20 20 17 20 18 19 21 21 20 19 20 21 22 25 23 19 17 16 16 15 14 16 14 9 8 13
3 8 6 5 3 4 4 4 3 4 3 5 3 7 8 11 9 19 25 27 27 25 22 20 19 19 20 20 20 21 20 21 17 15 13 12 11 13 13 14 13 13 13 12
6 4 13 8 5 7 4 5 4 4 4 4 6 6 7 9 16 30 36 36 35 36 30 25 24 24 23 21 19 17 17 17 15 13 11 11 12 16 15 13 11 11 12 13
4 3 11 6 8 7 6 6 5 3 2 4 1 6 6 6 8 7 27 35 44 37 34 29 30 28 23 19 18 17 15 15 11 9 8 8 9 14 15 13 12 12 10 12
6 7 8 10 6 7 5 6 7 4 3 0 3 4 6 4 6 11 17 28 31 38 38 35 34 27 23 19 18 17 16 12 9 8 7 7 8 11 12 11 11 12 15 16
5 1 7 9 6 10 7 6 5 4 2 6 8 8 5 6 11 5 13 25 25 25 28 31 31 26 25 23 20 19 15 11 9 8 8 7 6 7 8 9 11 12 13 15
4 3 2 5 5 3 5 8 1 1 4 7 2 8 12 7 9 8 9 13 17 17 24 29 33 31 26 22 21 18 15 12 11 11 9 8 7 6 6 7 7 7 9 10
7 5 8 6 7 8 11 10 5 8 5 4 2 7 6 10 18 24 31 23 14 19 23 28 31 28 24 22 20 18 17 14 14 13 12 11 10 9 9 9 9 10 11 11
8 6 2 5 4 10 5 9 5 4 2 2 4 6 8 9 9 7 6 13 14 20 26 29 29 25 22 21 21 19 18 18 18 16 15 14 14 12 11 12 12 13 14 14
7 2 3 6 4 1 7 8 3 2 2 4 5 5 7 2 10 5 5 17 20 23 28 29 27 24 22 23 22 21 21 21 19 19 18 18 16 15 13 13 12 13 14 15
4 3 1 5 9 14 5 7 5 5 5 5 2 6 7 13 6 8 8 15 20 25 28 29 26 25 23 23 23 24 24 22 22 22 21 20 17 16 15 15 15 15 16 16
8 4 5 6 1 3 16 10 15 6 5 4 2 14 3 6 9 3 5 10 20 27 28 27 26 25 25 25 25 26 25 25 24 26 25 22 20 18 17 16 16 16 16 17
10 6 2 2 4 3 6 11 9 6 3 15 6 12 7 11 9 2 2 4 8 21 26 30 30 29 28 27 27 27 27 27 28 28 27 24 22 20 20 19 18 18 17 16
16 5 16 17 10 7 8 14 17 14 6 11 17 18 6 6 6 1 5 6 8 11 24 31 32 32 31 30 29 29 29 30 29 29 28 27 25 24 22 21 20 19 18 16
7 8 10 21 6 9 15 16 16 18 26 12 24 22 21 17 6 16 24 23 20 21 22 29 33 35 35 34 33 33 32 31 30 31 30 30 28 26 25 23 21 19 18 16
4 7 8 11 9 7 6 16 23 27 26 19 23 22 12 10 12 17 18 13 15 19 21 22 30 36 37 36 37 38 37 36 34 32 31 30 29 28 26 24 22 19 18 16
2 5 7 14 8 6 8 21 20 20 23 25 20 27 24 19 12 21 25 30 36 35 34 31 31 33 34 36 38 41 42 41 38 34 32 31 30 28 26 24 21 20 18 17
6 5 6 8 7 14 15 16 16 20 15 19 16 21 23 21 24 22 28 33 32 31 31 32 32 33 34 35 37 42 44 42 39 37 34 31 29 27 25 24 22 20 19 18
14 4 5 8 14 4 4 7 19 17 25 18 18 26 36 35 13 28 38 33 34 32 31 31 30 31 32 32 34 36 39 40 40 39 35 31 27 26 24 23 22 21 19 18
16 13 9 7 11 11 18 8 11 6 7 17 28 24 21 19 6 16 32 24 23 22 24 24 23 23 25 28 29 33 37 39 41 38 33 28 26 26 25 24 22 20 19 18
5 5 14 12 5 6 8 7 24 10 10 18 20 32 31 12 22 30 21 17 18 15 17 20 20 21 24 24 25 28 32 34 35 31 29 27 25 23 21 21 20 19 17 16
7 7 5 7 10 13 4 5 13 9 3 19 11 19 27 32 37 38 33 29 24 17 17 19 20 20 20 21 23 26 28 30 29 27 26 26 25 25 24 22 19 17 15 15
5 5 6 5 4 13 19 13 17 10 14 18 14 16 18 23 27 22 22 22 19 18 19 21 21 19 18 21 23 25 25 25 25 24 24 24 23 21 21 21 19 16 14 15
4 6 4 4 8 13 27 28 19 18 19 20 25 26 18 20 23 27 25 22 22 23 23 21 21 22 22 22 23 23 24 24 23 23 22 22 22 20 19 17 15 12 15 15
6 1 6 4 7 4 14 19 23 21 23 25 21 23 24 21 22 22 24 26 27 26 24 22 22 23 23 23 23 23 23 23 23 22 22 22 20 18 16 15 15 16 16 14
8 7 3 5 3 8 14 21 17 17 21 22 24 28 28 28 28 27 27 25 26 26 25 24 24 23 23 23 22 21 21 21 21 21 21 20 19 18 18 16 15 13 14 17
Wind_Direction
175 149 191 195 202 112 138 161 191 228 264 195 225 237 240 253 270 271 266 261 248 231 226 220 227 230 235 239 254 259 267 282 280 270 267 263 257 254 247 246 243 233 245 254
121 227 199 153 154 150 128 156 207 284 283 189 261 256 251 257 247 252 260 257 253 246 237 227 229 237 241 244 254 259 269 279 264 262 262 259 240 242 238 246 243 231 240 245
179 222 170 173 167 184 208 182 175 210 350 342 343 283 245 262 249 253 251 251 252 250 235 224 232 239 243 250 252 253 263 256 254 259 261 251 227 228 233 234 234 219 224 251
250 251 180 158 195 165 212 184 172 183 86 237 75 285 275 259 259 237 249 245 244 244 241 234 236 235 238 238 243 247 248 244 248 256 259 251 239 226 227 231 228 218 227 247
216 187 179 198 187 156 205 157 172 169 196 254 202 293 265 260 279 258 259 258 252 248 236 227 229 228 231 225 232 237 233 234 237 248 252 242 225 219 221 223 228 233 241 254
206 262 168 186 172 172 154 85 56 59 102 258 203 196 222 204 222 264 273 264 254 247 233 227 220 216 217 219 223 224 224 224 232 238 235 228 218 217 223 235 244 252 258 265
165 235 246 176 129 84 136 120 85 266 222 238 252 210 259 270 264 225 252 287 242 227 220 211 205 207 210 220 219 215 215 217 224 225 221 214 209 213 219 227 239 255 264 267
173 204 180 194 181 176 175 167 163 201 210 245 108 227 253 238 253 255 258 273 240 214 209 205 204 206 216 217 215 215 215 219 221 220 223 225 228 233 238 251 266 272 270 271
176 238 162 175 158 155 187 201 159 113 31 30 230 288 294 257 266 285 233 210 201 207 206 202 203 211 215 220 219 219 220 222 225 230 232 234 236 241 254 266 268 268 272 275
198 175 232 180 106 331 173 150 167 66 205 251 259 260 234 275 240 218 191 203 204 205 204 204 208 213 223 225 222 224 225 229 234 238 236 234 238 248 253 257 260 264 272 279
193 131 222 132 205 187 159 190 204 178 170 197 245 252 221 232 207 202 225 228 220 213 210 209 215 226 230 224 228 229 230 234 238 241 239 241 242 242 246 251 258 266 273 280
192 142 175 191 86 312 218 215 197 195 217 237 254 256 294 232 171 146 259 268 234 226 222 222 227 230 230 232 233 235 236 239 242 242 240 237 239 242 248 253 259 266 272 277
178 207 122 359 308 340 211 217 212 208 96 235 217 261 232 187 234 115 348 290 269 234 230 230 230 232 236 241 241 241 243 244 245 243 241 241 243 246 250 252 255 261 265 269
188 207 217 222 217 145 207 210 215 208 209 225 226 248 260 216 186 276 286 308 318 269 243 239 235 239 242 243 244 244 245 245 246 245 245 244 244 245 248 250 252 255 258 259
186 213 221 238 203 196 204 204 208 208 224 204 242 240 242 246 254 260 275 286 277 266 257 243 242 245 246 246 244 245 247 247 247 246 246 246 246 246 247 247 247 247 248 248
269 239 216 247 211 195 201 207 207 214 224 233 250 261 245 252 236 247 245 231 240 257 257 257 255 252 250 254 255 253 250 249 246 246 246 244 244 244 243 242 241 240 239 236
288 282 208 238 187 185 231 218 206 217 221 218 232 244 259 258 231 235 246 255 260 264 267 271 268 265 262 261 263 259 254 246 243 243 242 242 241 241 240 239 237 235 233 232
189 265 273 228 158 220 231 218 203 210 222 218 244 253 254 254 255 252 254 254 261 270 268 271 271 270 271 271 265 258 252 245 242 241 241 241 240 239 238 237 235 233 230 229
205 189 262 238 215 289 290 207 194 193 231 220 223 244 253 261 279 272 264 263 263 264 268 273 276 276 276 274 268 261 254 246 242 241 240 240 241 240 238 234 231 228 226 226
217 211 231 237 204 205 228 197 178 101 240 216 215 237 250 257 248 264 271 267 264 261 262 264 266 268 276 277 266 255 249 242 239 238 239 241 241 240 237 234 230 226 223 223
193 180 245 253 228 280 256 157 140 169 227 244 205 224 236 234 233 254 271 271 271 253 253 260 265 269 275 273 265 254 247 241 238 236 236 235 234 233 231 228 225 224 225 225
194 164 221 234 237 241 132 86 169 207 194 256 207 224 233 250 260 255 266 268 269 261 266 269 270 265 262 262 258 248 240 237 235 234 235 235 230 226 223 221 219 216 218 222
254 214 172 191 223 207 200 253 232 247 249 255 261 272 259 256 256 258 265 268 267 266 268 271 267 259 262 257 252 243 238 234 233 231 229 227 225 220 215 212 212 217 221 232
253 222 238 116 238 240 246 249 256 259 261 268 268 267 245 240 257 269 269 265 266 272 270 265 256 256 254 250 243 236 234 232 230 228 225 222 219 214 213 213 209 218 231 233
227 258 205 259 278 348 281 263 266 272 269 261 254 264 263 258 257 261 267 271 274 270 264 258 257 256 251 246 242 239 236 232 228 223 220 215 209 204 202 215 225 224 227 237
193 214 195 242 219 211 263 282 278 265 265 273 271 266 263 262 263 261 260 260 261 260 258 256 256 250 246 244 241 238 234 229 223 216 208 202 198 205 218 220 226 233 253 259
Height
1529 1536 1535 1532 1529 1534 1538 1543 1545 1544 1538 1539 1542 1540 1535 1531 1533 1534 1533 1534 1536 1537 1538 1539 1539 1540 1540 1542 1543 1544 1544 1543 1542 1541 1540 1540 1540 1541 1541 1541 1542 1544 1546 1546
1532 1531 1530 1531 1534 1536 1539 1542 1545 1542 1538 1540 1538 1537 1533 1530 1529 1528 1527 1528 1530 1532 1533 1534 1535 1536 1536 1537 1538 1540 1540 1539 1538 1537 1537 1537 1538 1537 1538 1538 1539 1541 1541 1541
1527 1525 1525 1529 1532 1537 1539 1543 1543 1543 1542 1540 1541 1538 1531 1522 1521 1520 1519 1518 1520 1523 1526 1528 1530 1530 1531 1533 1535 1536 1536 1535 1534 1534 1534 1534 1534 1534 1535 1536 1536 1537 1537 1538
1526 1521 1523 1527 1529 1533 1540 1536 1539 1542 1546 1555 1543 1556 1532 1522 1518 1515 1510 1508 1509 1512 1519 1523 1523 1524 1526 1529 1532 1532 1532 1531 1531 1531 1531 1531 1531 1531 1532 1533 1533 1534 1535 1535
1520 1519 1523 1524 1523 1528 1534 1533 1538 1541 1546 1548 1546 1556 1530 1521 1517 1510 1503 1501 1501 1502 1509 1514 1517 1520 1523 1526 1527 1527 1527 1527 1528 1529 1529 1529 1529 1530 1530 1530 1531 1532 1532 1531
1517 1516 1518 1519 1522 1524 1528 1535 1540 1545 1548 1550 1542 1546 1532 1516 1506 1501 1497 1495 1495 1497 1502 1508 1513 1515 1518 1520 1522 1523 1524 1525 1526 1527 1528 1528 1528 1528 1528 1528 1528 1528 1528 1528
1517 1517 1514 1515 1521 1524 1527 1538 1556 1559 1555 1549 1533 1538 1503 1506 1500 1497 1494 1491 1492 1494 1497 1501 1506 1509 1513 1516 1518 1519 1521 1523 1524 1525 1526 1526 1527 1527 1527 1527 1527 1527 1526 1526
1520 1522 1515 1510 1512 1517 1520 1527 1539 1555 1550 1545 1535 1529 1508 1495 1492 1492 1490 1491 1491 1493 1496 1499 1503 1507 1510 1512 1515 1517 1518 1520 1521 1523 1524 1525 1525 1526 1525 1525 1524 1524 1525 1523
1516 1514 1505 1506 1507 1511 1523 1523 1526 1538 1561 1555 1529 1516 1501 1492 1491 1489 1487 1488 1489 1490 1493 1496 1501 1504 1507 1509 1511 1513 1515 1517 1519 1520 1521 1522 1522 1522 1522 1522 1522 1522 1521 1519
1501 1510 1505 1505 1506 1510 1513 1516 1530 1546 1560 1558 1522 1519 1502 1491 1491 1488 1488 1487 1488 1490 1493 1496 1499 1502 1504 1506 1508 1510 1512 1514 1516 1517 1517 1518 1518 1519 1519 1518 1518 1518 1517 1516
1496 1499 1510 1506 1505 1504 1511 1514 1516 1517 1533 1539 1537 1509 1490 1484 1485 1488 1488 1489 1489 1489 1491 1494 1497 1500 1501 1503 1505 1506 1508 1510 1511 1513 1513 1514 1514 1514 1514 1513 1513 1513 1512 1511
1492 1498 1508 1502 1500 1500 1498 1500 1504 1510 1524 1523 1518 1486 1480 1480 1482 1483 1485 1485 1486 1488 1490 1493 1495 1497 1498 1499 1500 1502 1503 1505 1506 1507 1508 1508 1508 1509 1509 1509 1509 1509 1508 1506
1485 1494 1507 1506 1506 1503 1500 1499 1500 1503 1510 1504 1514 1474 1474 1476 1479 1482 1483 1485 1485 1486 1488 1490 1492 1492 1493 1495 1496 1497 1498 1500 1500 1501 1502 1502 1503 1504 1504 1504 1504 1504 1503 1502
1479 1483 1478 1476 1473 1491 1499 1495 1495 1497 1506 1493 1493 1478 1478 1478 1478 1481 1482 1483 1484 1485 1485 1486 1487 1487 1488 1489 1491 1492 1493 1494 1494 1495 1495 1496 1497 1498 1498 1499 1498 1498 1497 1497
1478 1484 1478 1469 1476 1479 1479 1485 1492 1496 1482 1492 1469 1477 1472 1473 1476 1477 1478 1480 1480 1481 1481 1481 1481 1481 1482 1483 1484 1485 1486 1487 1487 1487 1488 1490 1491 1492 1492 1493 1493 1492 1491 1491
1475 1472 1477 1473 1476 1479 1480 1480 1480 1476 1477 1483 1471 1469 1464 1467 1470 1472 1472 1474 1474 1474 1475 1476 1476 1476 1476 1478 1478 1478 1478 1479 1479 1480 1481 1483 1485 1486 1486 1487 1487 1486 1486 1485
1486 1473 1472 1463 1471 1481 1480 1465 1466 1470 1468 1467 1472 1453 1454 1459 1464 1465 1468 1467 1465 1466 1467 1468 1468 1469 1469 1470 1470 1469 1469 1470 1471 1473 1474 1476 1477 1479 1480 1481 1481 1481 1481 1481
1476 1480 1479 1458 1467 1459 1444 1447 1456 1458 1456 1462 1460 1452 1445 1450 1453 1459 1458 1456 1458 1459 1459 1459 1459 1459 1460 1461 1460 1461 1461 1463 1464 1465 1467 1469 1470 1472 1474 1475 1476 1477 1478 1479
1464 1471 1470 1451 1450 1451 1443 1440 1443 1448 1443 1449 1453 1442 1438 1444 1452 1448 1446 1449 1449 1450 1451 1451 1451 1450 1450 1451 1451 1451 1452 1453 1455 1456 1459 1461 1464 1466 1467 1469 1471 1473 1474 1475
1456 1456 1464 1447 1433 1441 1424 1426 1429 1439 1448 1432 1434 1436 1438 1442 1452 1436 1436 1438 1440 1442 1442 1442 1442 1442 1442 1441 1442 1443 1443 1443 1445 1448 1452 1456 1458 1460 1462 1464 1466 1468 1470 1471
1446 1441 1445 1435 1430 1442 1417 1419 1426 1446 1435 1417 1429 1429 1429 1436 1432 1428 1428 1431 1433 1434 1435 1436 1436 1437 1436 1435 1435 1435 1436 1438 1441 1445 1447 1449 1451 1454 1459 1462 1463 1465 1467 1468
1438 1428 1442 1432 1430 1429 1422 1424 1424 1415 1413 1417 1421 1423 1424 1424 1423 1423 1423 1424 1425 1426 1427 1428 1428 1429 1429 1429 1429 1429 1429 1432 1436 1439 1443 1447 1445 1444 1449 1455 1459 1461 1463 1465
1439 1421 1421 1430 1424 1418 1420 1418 1413 1412 1414 1413 1413 1415 1417 1417 1416 1417 1418 1419 1420 1422 1422 1422 1422 1422 1423 1423 1424 1425 1426 1429 1432 1434 1437 1440 1443 1444 1446 1448 1451 1456 1457 1461
1426 1422 1419 1418 1407 1406 1404 1406 1404 1409 1410 1408 1409 1410 1412 1411 1412 1412 1413 1413 1414 1415 1415 1415 1416 1416 1416 1415 1417 1420 1422 1424 1425 1429 1433 1435 1438 1439 1444 1447 1448 1450 1454 1454
1423 1417 1410 1407 1400 1401 1398 1395 1396 1400 1402 1403 1405 1405 1404 1405 1406 1408 1407 1408 1408 1408 1409 1410 1411 1412 1411 1411 1412 1414 1417 1419 1420 1423 1427 1431 1434 1437 1440 1444 1446 1447 1448 1450
1410 1409 1411 1401 1395 1401 1397 1396 1398 1398 1399 1401 1402 1401 1400 1399 1398 1399 1399 1399 1400 1401 1402 1402 1403 1406 1407 1407 1408 1411 1414 1415 1416 1420 1423 1427 1430 1433 1435 1439 1441 1445 1446 1446